Wind_Speed
21 19 17 14 10 10 15 13 11 10 11 14 12 13 13 12 10 8 6 4 2 1 1 3 5 8 9 11 11 12 13 12 14 15 15 14 14 13 14 13 13 12 11 13 15
19 18 14 14 14 16 16 14 12 10 13 15 13 13 13 13 10 7 6 4 3 3 3 6 9 11 13 15 15 14 16 14 14 14 14 13 13 14 14 13 12 13 13 15 16
17 16 16 18 17 15 13 14 13 11 15 17 15 15 14 13 11 10 7 5 5 6 6 8 11 12 14 15 16 15 15 14 14 13 14 14 15 15 14 13 13 15 16 16 16
22 21 18 14 18 19 18 14 12 13 15 17 18 16 15 15 14 11 9 6 6 7 9 11 13 14 14 15 17 15 15 15 15 16 15 15 14 15 15 14 16 16 16 17 17
20 16 16 16 12 16 18 15 12 13 16 17 18 17 17 16 14 12 10 8 8 9 10 12 12 14 15 15 16 15 15 15 15 15 14 15 15 15 17 16 16 16 16 15 15
23 20 19 23 25 22 17 13 14 14 17 17 18 17 18 17 16 14 12 10 10 10 12 13 12 15 16 17 16 15 14 14 15 15 16 16 16 16 17 17 15 15 14 13 13
27 24 27 24 21 16 14 13 15 15 16 16 18 18 17 19 18 17 14 13 12 12 12 14 13 15 17 18 17 15 14 15 16 16 16 16 18 16 16 15 14 13 12 12 11
26 23 23 21 18 14 13 12 13 15 15 16 18 18 19 20 20 18 15 15 15 14 14 15 15 16 17 19 19 18 15 16 17 17 17 17 18 12 15 14 14 13 13 13 13
23 26 22 19 15 14 12 11 11 12 15 17 18 19 21 21 21 20 18 16 15 15 16 17 17 16 18 19 20 19 17 18 18 18 17 19 15 15 16 14 14 13 14 14 15
26 22 20 18 14 13 11 10 9 11 13 15 17 19 21 21 21 20 20 19 17 16 18 19 19 17 18 20 20 20 19 20 21 19 18 17 15 18 17 15 15 15 15 16 18
20 22 21 17 14 13 11 11 10 11 11 14 17 20 21 21 21 22 21 21 20 19 20 22 21 20 19 20 22 22 22 21 24 23 20 21 14 21 18 16 17 17 18 19 20
23 22 19 17 15 13 11 10 9 11 11 14 17 20 21 21 22 22 23 24 23 22 21 22 22 21 20 21 24 24 23 24 23 25 23 23 17 22 20 19 19 19 21 22 23
20 20 19 17 15 13 12 10 8 11 12 13 16 18 18 21 23 23 24 25 25 24 23 22 24 23 22 23 25 25 24 25 26 27 27 26 21 24 24 23 21 21 23 24 26
20 19 18 17 15 13 12 10 9 9 10 11 12 13 15 18 20 22 24 25 25 25 24 22 24 24 23 24 26 25 27 28 29 29 28 28 27 19 26 24 22 23 25 26 26
19 19 18 16 16 16 14 13 11 11 10 10 9 11 13 16 18 22 23 24 26 25 25 24 25 25 24 25 27 26 28 28 30 30 31 27 35 16 26 28 25 27 28 27 28
20 19 17 17 17 16 15 14 13 13 12 11 12 12 13 14 16 17 19 20 22 22 22 23 25 24 24 26 27 29 30 31 32 32 32 31 34 26 24 28 29 30 31 30 31
20 17 18 18 17 17 16 15 14 13 14 15 14 14 15 16 17 17 19 20 20 20 20 22 22 24 26 27 29 31 32 34 35 34 33 33 35 29 26 29 33 35 35 34 35
19 19 19 19 20 19 18 16 14 16 17 17 18 18 19 20 21 21 20 22 23 24 24 23 22 25 26 28 30 31 33 35 41 40 39 37 37 30 29 28 33 36 36 36 38
18 18 19 19 20 21 20 18 18 20 21 21 21 21 21 22 23 23 23 24 26 28 30 30 27 27 29 31 33 34 36 37 43 44 46 41 37 34 32 28 31 34 33 33 37
18 19 20 21 22 22 21 20 23 24 24 24 23 24 25 26 26 26 24 25 28 30 33 32 32 29 31 32 33 36 36 37 39 47 50 44 42 36 37 32 30 32 35 38 41
21 21 22 23 23 24 22 23 25 26 25 25 24 26 26 29 29 30 29 29 31 33 34 37 36 30 31 32 34 36 36 38 42 43 49 52 47 36 41 36 35 33 38 44 49
21 22 22 23 24 23 23 24 25 25 26 26 26 27 28 29 30 30 29 31 33 35 36 38 41 37 34 34 35 36 39 41 44 45 48 48 56 42 41 40 40 39 41 45 51
26 26 26 27 26 26 27 27 28 27 29 29 29 30 30 32 35 32 31 33 35 37 39 40 42 41 38 37 37 39 40 42 44 47 47 50 54 48 44 45 46 48 47 49 51
32 32 32 33 33 33 33 32 33 33 34 36 35 35 36 36 37 38 36 38 38 39 40 43 42 42 43 42 42 41 42 44 44 47 46 53 54 49 52 55 54 52 53 52 50
33 33 33 34 35 36 37 37 39 41 41 41 42 42 43 43 42 43 46 45 45 45 45 47 49 48 46 46 47 47 47 47 46 45 50 55 55 56 59 60 58 61 60 60 57
33 34 34 35 35 35 36 36 39 41 41 42 44 44 45 45 47 47 48 48 49 49 49 50 52 53 53 51 52 54 51 48 49 51 53 54 60 54 61 61 60 58 56 56 55
27 24 23 22 23 24 25 27 28 33 36 39 41 43 45 47 50 50 51 51 51 52 51 53 53 55 58 56 58 61 51 52 53 52 53 56 56 59 64 62 62 61 61 59 57
Wind_Direction
211 210 210 212 213 219 229 223 219 237 227 200 192 175 172 181 181 184 183 159 151 215 352 322 322 318 319 311 308 306 302 300 300 300 300 297 296 292 285 285 290 293 295 294 300
213 211 209 212 218 225 222 219 223 230 220 203 196 186 184 191 185 198 205 187 208 254 299 307 311 312 311 310 304 307 303 301 299 299 297 297 296 292 286 286 288 290 290 292 296
212 217 219 216 205 211 226 225 225 225 215 207 201 199 193 199 192 204 216 217 245 270 290 300 304 309 310 310 307 307 303 299 297 295 293 294 294 291 287 285 287 289 291 293 293
204 208 200 205 218 219 224 227 227 222 217 212 208 206 203 205 203 211 221 238 262 285 298 305 308 312 314 315 312 310 304 298 294 293 293 292 290 287 284 288 292 293 293 294 296
195 200 200 206 211 223 224 225 228 226 222 218 213 211 214 213 216 221 228 242 265 284 298 305 303 305 309 311 309 304 300 297 294 289 285 286 286 283 285 291 292 293 293 295 296
196 200 205 209 220 220 221 223 231 226 226 223 216 213 217 217 219 223 231 240 257 279 300 308 296 295 308 311 306 306 303 298 294 290 285 284 283 284 291 287 290 290 292 293 294
191 201 213 213 216 216 224 226 233 230 227 227 224 217 216 219 221 223 228 241 256 275 290 299 296 294 306 311 304 301 299 296 295 293 287 287 287 287 287 285 286 285 287 289 289
184 211 214 212 214 217 223 226 233 233 231 228 227 221 219 222 227 227 231 243 253 267 284 294 296 291 299 307 304 299 297 294 293 292 289 287 285 281 280 282 281 281 286 288 291
194 213 210 210 209 216 222 230 239 242 239 234 231 226 224 226 229 231 234 244 255 273 285 290 292 291 293 301 303 298 296 290 290 291 289 288 278 281 274 275 276 281 288 291 290
209 207 207 208 208 217 230 236 244 249 246 243 239 236 233 234 233 233 239 249 262 274 282 283 287 287 290 298 302 297 294 291 288 292 288 276 267 275 270 274 278 280 282 283 287
205 206 208 207 213 222 232 244 253 255 255 251 245 242 241 240 241 240 245 252 260 272 278 281 282 284 288 295 301 298 292 289 286 293 291 282 272 270 270 274 275 277 278 280 282
205 208 209 209 220 226 238 254 264 264 263 257 250 248 246 244 245 246 248 253 261 270 275 277 277 285 284 290 296 296 292 289 288 287 288 282 283 271 270 272 274 278 278 281 285
206 211 212 214 224 234 244 255 268 268 263 261 260 255 254 250 250 251 253 256 263 267 271 273 275 278 282 285 288 296 294 289 287 286 289 286 283 275 270 269 277 279 280 281 283
210 214 217 220 228 239 246 255 261 269 268 274 273 269 266 261 261 260 262 264 266 268 271 273 272 274 276 283 285 294 294 293 291 288 288 287 287 272 277 276 280 280 280 281 285
211 216 217 223 232 240 244 249 262 270 273 281 283 279 274 271 269 269 268 268 269 270 273 273 269 271 277 282 289 292 295 296 293 292 290 292 287 284 277 283 275 277 281 285 286
216 219 221 227 234 242 249 257 265 271 280 280 287 287 282 281 278 275 279 277 276 278 278 276 278 279 279 283 288 291 294 294 293 292 291 291 288 293 281 278 281 279 280 282 283
221 222 227 230 235 241 248 255 266 276 280 280 283 284 285 286 287 288 289 288 288 286 285 284 285 283 283 287 290 293 295 294 290 290 294 293 290 302 298 285 283 280 282 279 283
225 229 231 235 240 245 249 258 265 271 274 278 280 281 280 282 284 286 288 290 291 289 287 285 283 287 290 292 292 294 295 297 296 296 294 294 297 304 300 293 284 286 287 288 282
233 238 245 251 254 256 261 265 266 267 271 274 277 280 283 284 285 284 286 288 288 289 289 290 289 289 291 293 295 294 296 298 297 296 295 296 298 300 304 301 297 298 294 284 276
240 244 249 253 256 261 265 268 269 268 269 272 277 280 282 282 283 285 285 289 288 288 288 289 288 290 291 294 295 296 298 297 295 295 298 300 301 310 309 312 300 290 284 278 278
244 248 251 255 260 264 268 267 267 271 275 278 280 282 281 282 283 282 285 283 283 284 286 287 287 288 289 290 292 294 295 294 294 296 298 302 301 312 315 312 300 289 279 275 274
250 250 253 257 260 263 264 267 271 275 280 281 282 282 284 284 284 285 286 284 283 284 283 283 286 287 287 287 288 290 290 291 292 293 293 299 296 310 311 303 294 286 281 279 278
252 255 257 260 262 263 265 267 268 270 273 275 277 278 280 280 281 282 284 284 285 285 287 288 289 292 292 291 289 288 289 289 290 291 296 295 298 308 307 298 293 291 290 287 284
254 257 260 260 262 263 265 266 269 269 270 274 275 276 275 275 280 284 283 282 283 285 287 287 289 291 293 294 291 289 288 289 291 294 297 292 296 296 294 292 292 295 292 291 289
255 259 262 264 266 266 267 269 269 271 271 272 274 275 275 277 277 279 281 282 281 282 281 283 286 286 286 288 288 289 290 290 294 298 295 295 294 299 298 296 298 296 296 298 297
259 262 262 263 267 268 270 272 272 273 274 274 276 276 277 278 278 278 278 280 281 282 284 285 285 284 284 283 285 283 285 294 295 294 294 296 297 299 297 298 297 299 301 299 299
258 256 260 266 269 271 274 275 274 273 276 279 277 275 276 277 278 278 279 279 281 282 284 284 285 286 284 285 284 281 288 287 289 292 293 294 296 295 290 293 297 298 299 299 297
Height
5863 5865 5867 5869 5871 5872 5874 5874 5874 5874 5876 5876 5876 5875 5877 5881 5882 5883 5883 5883 5882 5882 5880 5880 5880 5880 5879 5878 5877 5877 5877 5875 5874 5873 5872 5871 5870 5869 5869 5868 5867 5866 5865 5864 5862
5861 5864 5866 5868 5870 5873 5873 5873 5872 5872 5874 5875 5875 5876 5877 5881 5881 5883 5883 5881 5881 5881 5880 5880 5880 5879 5878 5877 5876 5874 5874 5873 5871 5870 5870 5869 5868 5867 5866 5865 5864 5863 5863 5861 5859
5859 5862 5865 5868 5869 5870 5872 5873 5871 5870 5873 5874 5874 5876 5877 5880 5880 5882 5883 5881 5881 5881 5879 5878 5879 5877 5876 5875 5874 5872 5871 5870 5868 5868 5867 5866 5865 5864 5863 5863 5862 5860 5859 5857 5855
5857 5861 5863 5866 5868 5869 5872 5872 5869 5870 5871 5872 5873 5875 5877 5879 5880 5880 5881 5880 5881 5880 5879 5877 5876 5875 5874 5872 5870 5869 5868 5867 5866 5865 5864 5863 5863 5862 5861 5860 5859 5857 5855 5854 5852
5856 5859 5861 5864 5866 5868 5869 5869 5869 5868 5870 5871 5871 5873 5876 5878 5879 5879 5880 5879 5880 5879 5878 5876 5874 5873 5872 5870 5868 5867 5866 5865 5864 5862 5861 5861 5860 5859 5857 5856 5855 5854 5852 5851 5849
5853 5857 5859 5863 5864 5865 5866 5866 5868 5867 5868 5869 5869 5870 5874 5876 5877 5877 5878 5877 5877 5877 5876 5874 5872 5871 5869 5868 5866 5864 5863 5862 5861 5860 5859 5858 5857 5856 5855 5853 5852 5851 5849 5848 5847
5852 5854 5858 5860 5862 5862 5863 5864 5866 5866 5865 5866 5867 5869 5871 5873 5874 5874 5874 5875 5876 5875 5874 5872 5870 5870 5868 5866 5864 5861 5861 5860 5859 5857 5856 5856 5854 5854 5852 5850 5849 5848 5847 5846 5844
5848 5853 5856 5858 5859 5860 5862 5862 5863 5864 5863 5863 5865 5866 5867 5870 5872 5872 5872 5873 5873 5873 5872 5870 5868 5867 5865 5864 5862 5860 5858 5857 5856 5854 5853 5852 5851 5850 5848 5847 5846 5845 5844 5842 5841
5847 5853 5854 5856 5857 5859 5860 5860 5862 5861 5861 5861 5863 5862 5864 5867 5869 5869 5869 5871 5870 5870 5870 5867 5865 5864 5863 5861 5859 5857 5855 5853 5852 5851 5850 5848 5848 5845 5844 5843 5842 5841 5840 5839 5838
5847 5850 5853 5854 5855 5857 5858 5859 5858 5860 5860 5860 5860 5862 5864 5865 5865 5865 5866 5867 5867 5866 5866 5865 5863 5861 5859 5857 5856 5854 5852 5850 5848 5848 5846 5845 5845 5842 5841 5840 5839 5838 5837 5836 5835
5845 5849 5852 5852 5853 5856 5856 5858 5858 5859 5856 5857 5858 5859 5860 5860 5862 5862 5863 5864 5863 5863 5862 5861 5860 5857 5856 5854 5853 5850 5848 5847 5845 5843 5842 5840 5842 5838 5838 5837 5836 5835 5833 5832 5831
5844 5847 5849 5849 5852 5854 5854 5855 5854 5855 5855 5855 5855 5856 5857 5855 5857 5858 5858 5860 5859 5858 5857 5857 5856 5854 5852 5850 5849 5846 5844 5843 5841 5839 5838 5836 5838 5835 5834 5834 5833 5831 5830 5828 5826
5842 5845 5848 5849 5850 5851 5852 5852 5850 5852 5854 5854 5854 5853 5853 5853 5853 5853 5854 5854 5854 5853 5852 5852 5852 5849 5848 5846 5844 5842 5839 5837 5836 5834 5833 5831 5834 5832 5831 5830 5828 5827 5825 5823 5821
5841 5844 5846 5846 5849 5849 5850 5850 5849 5850 5852 5851 5851 5849 5850 5849 5850 5850 5850 5851 5850 5849 5848 5848 5846 5844 5843 5841 5839 5839 5835 5832 5830 5828 5828 5827 5826 5829 5827 5826 5824 5821 5820 5817 5815
5838 5841 5842 5843 5845 5847 5848 5848 5847 5849 5850 5850 5848 5847 5847 5848 5847 5846 5847 5846 5845 5844 5844 5843 5841 5839 5839 5836 5834 5833 5830 5828 5826 5824 5822 5824 5818 5829 5823 5821 5819 5815 5813 5811 5809
5836 5838 5838 5841 5843 5844 5845 5846 5846 5848 5846 5846 5846 5845 5845 5845 5844 5843 5843 5842 5841 5840 5839 5838 5837 5836 5835 5832 5830 5828 5826 5823 5820 5818 5817 5817 5813 5820 5819 5815 5812 5809 5807 5805 5802
5833 5834 5837 5839 5840 5841 5842 5843 5845 5843 5844 5844 5843 5843 5842 5842 5842 5841 5840 5839 5838 5837 5835 5835 5833 5832 5830 5829 5826 5823 5820 5816 5814 5812 5811 5810 5807 5813 5813 5809 5805 5802 5799 5797 5794
5829 5831 5834 5835 5836 5838 5839 5840 5840 5840 5840 5840 5840 5839 5839 5839 5838 5838 5837 5835 5834 5832 5832 5831 5831 5828 5827 5825 5822 5819 5816 5811 5804 5804 5804 5803 5801 5805 5803 5801 5797 5794 5791 5789 5785
5827 5829 5831 5832 5833 5834 5835 5836 5836 5836 5837 5836 5836 5835 5836 5834 5834 5833 5832 5831 5829 5827 5825 5824 5826 5824 5822 5819 5817 5814 5811 5808 5800 5797 5792 5795 5796 5796 5795 5792 5789 5784 5782 5777 5773
5822 5824 5826 5828 5828 5829 5830 5831 5831 5831 5831 5831 5831 5830 5830 5829 5829 5827 5827 5826 5823 5821 5819 5818 5817 5819 5817 5814 5811 5807 5805 5801 5796 5787 5781 5785 5784 5788 5785 5785 5780 5776 5771 5765 5761
5818 5820 5821 5822 5823 5825 5826 5826 5825 5826 5825 5826 5825 5824 5824 5823 5822 5821 5822 5820 5818 5815 5812 5810 5810 5813 5810 5808 5805 5802 5798 5793 5787 5785 5776 5770 5773 5782 5775 5771 5766 5763 5756 5750 5745
5813 5815 5815 5816 5819 5819 5819 5819 5819 5819 5819 5819 5819 5818 5817 5817 5816 5815 5815 5813 5810 5808 5806 5803 5799 5801 5802 5800 5798 5794 5789 5785 5780 5777 5771 5769 5755 5771 5765 5760 5751 5748 5744 5739 5734
5807 5808 5810 5810 5811 5811 5812 5812 5812 5813 5811 5811 5811 5812 5811 5809 5808 5808 5808 5806 5803 5800 5798 5796 5793 5792 5793 5793 5789 5784 5781 5776 5773 5769 5767 5759 5753 5753 5752 5744 5739 5733 5733 5729 5724
5799 5800 5802 5802 5803 5803 5803 5805 5805 5805 5804 5803 5804 5804 5802 5801 5801 5799 5799 5797 5795 5793 5790 5786 5786 5785 5782 5780 5777 5775 5771 5766 5764 5759 5757 5749 5744 5747 5739 5730 5728 5724 5718 5715 5712
5790 5792 5793 5793 5794 5795 5795 5797 5797 5796 5797 5797 5796 5794 5793 5794 5792 5790 5788 5788 5786 5784 5781 5778 5777 5775 5774 5769 5763 5762 5761 5757 5755 5752 5740 5740 5734 5733 5725 5716 5716 5708 5705 5703 5700
5782 5784 5784 5785 5786 5786 5787 5789 5788 5787 5788 5788 5786 5786 5785 5783 5780 5780 5778 5777 5775 5774 5770 5769 5764 5761 5761 5757 5753 5749 5750 5749 5747 5740 5732 5728 5725 5723 5709 5704 5700 5698 5695 5690 5685
5775 5775 5776 5778 5779 5779 5779 5778 5778 5778 5777 5776 5775 5774 5774 5773 5770 5769 5767 5765 5763 5761 5760 5757 5753 5748 5744 5743 5739 5733 5745 5740 5734 5729 5723 5717 5715 5707 5697 5693 5691 5687 5680 5674 5668